TimeWET,TemperatureF,Dew PointF,Humidity,Sea Level PressureIn,VisibilityMPH,Wind Direction,Wind SpeedMPH,Gust SpeedMPH,PrecipitationIn,Events,Conditions,WindDirDegrees,DateUTC
12:00 AM,66,63,88,30.12,3,NNE,3.5,,,,Scattered Clouds,30,2012-10-07 00:00:00
12:00 AM,66.2,62.6,88,30.12,6.2,NNE,3.5,-,N/A,,Unknown,30,2012-10-07 00:00:00
12:30 AM,66.2,62.6,88,30.12,5.6,North,3.5,-,N/A,,Unknown,10,2012-10-07 00:30:00
1:00 AM,66.2,62.6,88,30.12,3.1,North,8.1,-,N/A,,Unknown,360,2012-10-07 01:00:00
1:30 AM,66.2,62.6,88,30.12,3.7,North,9.2,-,N/A,,Unknown,360,2012-10-07 01:30:00
2:00 AM,66.2,64.4,94,30.12,3.1,North,9.2,-,N/A,,Partly Cloudy,10,2012-10-07 02:00:00
2:30 AM,68.0,66.2,94,30.12,2.5,NNE,9.2,-,N/A,,Partly Cloudy,30,2012-10-07 02:30:00
3:00 AM,67,67,98,30.13,3,NNE,10.4,,,,Mist,20,2012-10-07 03:00:00
3:00 AM,68.0,66.2,94,30.12,3.1,NNE,10.4,-,N/A,,Mostly Cloudy,20,2012-10-07 03:00:00
3:30 AM,68.0,66.2,94,30.12,3.7,NE,8.1,-,N/A,,Mostly Cloudy,50,2012-10-07 03:30:00
4:00 AM,66.2,66.2,100,30.12,3.7,ENE,11.5,-,N/A,,Mostly Cloudy,60,2012-10-07 04:00:00
4:30 AM,66.2,66.2,100,30.12,4.3,ENE,11.5,-,N/A,,Mostly Cloudy,60,2012-10-07 04:30:00
5:00 AM,64.4,64.4,100,30.12,3.7,East,9.2,-,N/A,,Mostly Cloudy,90,2012-10-07 05:00:00
5:30 AM,62.6,62.6,100,30.12,-9999.0,East,5.8,-,N/A,,Scattered Clouds,90,2012-10-07 05:30:00
6:00 AM,62,61,95,30.12,3,East,5.8,,,,Mist,100,2012-10-07 06:00:00
6:00 AM,60.8,60.8,100,30.12,-9999.0,East,5.8,-,N/A,,Scattered Clouds,100,2012-10-07 06:00:00
6:30 AM,60.8,60.8,100,30.12,-9999.0,East,4.6,-,N/A,,Scattered Clouds,80,2012-10-07 06:30:00
7:00 AM,60.8,60.8,100,30.12,-9999.0,East,3.5,-,N/A,,Scattered Clouds,80,2012-10-07 07:00:00
7:30 AM,62.6,62.6,100,30.12,3.1,East,3.5,-,N/A,,Unknown,100,2012-10-07 07:30:00
8:00 AM,66.2,64.4,94,30.12,5.6,East,4.6,-,N/A,,Unknown,80,2012-10-07 08:00:00
8:30 AM,68.0,62.6,83,30.12,-9999.0,East,4.6,-,N/A,,Clear,100,2012-10-07 08:30:00
9:00 AM,72,62,63,30.13,6,NNE,2.3,,,,Clear,30,2012-10-07 09:00:00
9:00 AM,71.6,62.6,73,30.15,-9999.0,Variable,2.3,-,N/A,,Clear,0,2012-10-07 09:00:00
9:30 AM,77.0,60.8,57,30.15,-9999.0,Variable,1.2,-,N/A,,Clear,0,2012-10-07 09:30:00
10:00 AM,80.6,60.8,51,30.15,-9999.0,Variable,2.3,-,N/A,,Clear,0,2012-10-07 10:00:00
10:30 AM,84.2,59.0,42,30.15,-9999.0,North,4.6,-,N/A,,Clear,360,2012-10-07 10:30:00
11:00 AM,84.2,60.8,45,30.15,-9999.0,NNW,8.1,-,N/A,,Clear,340,2012-10-07 11:00:00
11:30 AM,86.0,60.8,43,30.12,-9999.0,North,4.6,-,N/A,,Clear,10,2012-10-07 11:30:00
12:00 PM,87,59,29,30.10,6,NNW,8.1,,,,Clear,330,2012-10-07 12:00:00
12:00 PM,87.8,59.0,38,30.12,-9999.0,NNW,8.1,-,N/A,,Clear,330,2012-10-07 12:00:00
12:30 PM,87.8,59.0,38,30.12,-9999.0,NNW,8.1,-,N/A,,Clear,330,2012-10-07 12:30:00
1:00 PM,87.8,59.0,38,30.12,-9999.0,North,10.4,-,N/A,,Clear,350,2012-10-07 13:00:00
1:30 PM,87.8,55.4,33,30.12,-9999.0,North,10.4,-,N/A,,Clear,350,2012-10-07 13:30:00
2:00 PM,87.8,57.2,35,30.09,-9999.0,North,12.7,-,N/A,,Clear,350,2012-10-07 14:00:00
2:30 PM,86.0,62.6,45,30.09,-9999.0,NNW,16.1,-,N/A,,Clear,340,2012-10-07 14:30:00
3:00 PM,84,64,41,30.08,6,North,15.0,,,,Unknown Precipitation,0,2012-10-07 15:00:00
3:00 PM,84.2,64.4,51,30.09,-9999.0,North,15.0,-,N/A,,Clear,360,2012-10-07 15:00:00
3:30 PM,82.4,62.6,51,30.09,-9999.0,North,15.0,-,N/A,,Clear,350,2012-10-07 15:30:00
4:00 PM,80.6,64.4,58,30.12,-9999.0,North,13.8,-,N/A,,Clear,360,2012-10-07 16:00:00
4:30 PM,78.8,62.6,57,30.12,-9999.0,North,15.0,-,N/A,,Clear,360,2012-10-07 16:30:00
5:00 PM,78.8,60.8,54,30.12,-9999.0,North,15.0,-,N/A,,Clear,360,2012-10-07 17:00:00
5:30 PM,77.0,62.6,61,30.12,-9999.0,NNE,12.7,-,N/A,,Clear,20,2012-10-07 17:30:00
6:00 PM,76,61,51,30.11,6,NNE,9.2,,,,Clear,30,2012-10-07 18:00:00
6:00 PM,77.0,60.8,57,30.12,-9999.0,NNE,9.2,-,N/A,,Clear,30,2012-10-07 18:00:00
6:30 PM,75.2,62.6,65,30.12,-9999.0,North,9.2,-,N/A,,Clear,10,2012-10-07 18:30:00
7:00 PM,75.2,62.6,65,30.15,6.2,NNE,6.9,-,N/A,,Unknown,30,2012-10-07 19:00:00
7:30 PM,73.4,62.6,69,30.15,-9999.0,NE,6.9,-,N/A,,Clear,40,2012-10-07 19:30:00
8:00 PM,73.4,64.4,73,30.15,6.2,NE,4.6,-,N/A,,Scattered Clouds,50,2012-10-07 20:00:00
8:30 PM,71.6,64.4,78,30.15,6.2,ENE,4.6,-,N/A,,Scattered Clouds,70,2012-10-07 20:30:00
9:00 PM,71,66,80,30.15,6,NE,3.5,,,,Scattered Clouds,50,2012-10-07 21:00:00
9:00 PM,71.6,66.2,83,30.15,6.2,NE,3.5,-,N/A,,Scattered Clouds,50,2012-10-07 21:00:00
9:30 PM,71.6,66.2,83,30.15,6.2,NNE,5.8,-,N/A,,Scattered Clouds,20,2012-10-07 21:30:00
10:00 PM,71.6,64.4,78,30.15,6.2,NE,5.8,-,N/A,,Scattered Clouds,50,2012-10-07 22:00:00
10:30 PM,69.8,64.4,83,30.15,6.2,NE,3.5,-,N/A,,Scattered Clouds,40,2012-10-07 22:30:00
11:00 PM,68.0,64.4,88,30.15,3.1,North,5.8,-,N/A,,Scattered Clouds,350,2012-10-07 23:00:00
11:30 PM,68.0,64.4,88,30.15,3.7,North,1.2,-,N/A,,Partly Cloudy,360,2012-10-07 23:30:00
11:59 PM,66.2,64.4,94,30.15,2.2,North,5.8,-,N/A,,Scattered Clouds,350,2012-10-07 23:59:00